• Processing (Info)

  • MPEC 2016-C16 : 2016 BU39

    The following Minor Planet Electronic Circular may be linked-to from your own Web pages, but must not otherwise be redistributed electronically.

    A form allowing access to any MPEC is at the bottom of this page.


    Read MPEC 2016-C15 Read MPEC 2016-C17


    M.P.E.C. 2016-C16                                Issued 2016 Feb. 3, 16:22 UT
    
         The Minor Planet Electronic Circulars contain information on unusual
             minor planets and routine data on comets.  They are published
        on behalf of Division F of the International Astronomical Union by the
              Minor Planet Center, Smithsonian Astrophysical Observatory,
                              Cambridge, MA 02138, U.S.A.
    
                 Prepared using the Tamkin Foundation Computer Network
    
                                  MPC@CFA.HARVARD.EDU
                URL https://www.minorplanetcenter.net/    ISSN 1523-6714
    
                                       2016 BU39
    
    Observations:
         K16B39U* C2016 01 30.33838 08 09 38.52 +24 08 58.7          21.4 VqEC016G96
         K16B39U  C2016 01 30.35121 08 09 38.84 +24 13 44.7          19.9 VqEC016G96
         K16B39U  C2016 01 30.35762 08 09 39.06 +24 16 06.4          20.2 VqEC016G96
         K16B39U  C2016 01 30.38321 08 09 39.81 +24 25 31.3          21.6 VqEC016G96
         K16B39U  C2016 01 30.38349 08 09 39.73 +24 25 37.3          21.4 VqEC016G96
         K16B39U  C2016 01 30.38377 08 09 39.75 +24 25 43.7          22.0 VqEC016G96
         K16B39U  C2016 01 30.38405 08 09 39.81 +24 25 50.1          20.9 VqEC016G96
         K16B39U  C2016 01 30.41148 08 09 40.84 +24 35 55.9          20.4 VqEC016G96
         K16B39U  C2016 01 30.41178 08 09 40.87 +24 36 02.4          20.4 VqEC016G96
         K16B39U  C2016 01 30.41208 08 09 40.85 +24 36 09.7          20.4 VqEC016G96
         K16B39U  C2016 01 30.41238 08 09 40.84 +24 36 16.2          20.1 VqEC016G96
         K16B39U  C2016 01 31.25497 08 11 17.16 +30 02 08.2          20.8 RoEC016926
         K16B39U  C2016 01 31.25869 08 11 17.32 +30 03 37.4          20.8 RoEC016926
         K16B39U  C2016 01 31.26241 08 11 17.55 +30 05 08.4          20.7 RoEC016926
         K16B39U  C2016 01 31.28130 08 11 18.09 +30 12 40.2          21.2 RoEC016926
         K16B39U  C2016 01 31.28501 08 11 18.25 +30 14 09.6          21.0 RoEC016926
         K16B39U  C2016 01 31.28872 08 11 18.37 +30 15 38.6          20.6 RoEC016926
         K16B39U  C2016 01 31.32818 08 11 19.74 +30 31 20.5          20.6 VqEC016G96
         K16B39U  C2016 01 31.33012 08 11 19.82 +30 32 07.1          20.4 VqEC016G96
         K16B39U  C2016 01 31.33206 08 11 19.89 +30 32 53.5          20.6 VqEC016G96
         K16B39U  C2016 01 31.33399 08 11 19.96 +30 33 39.5          20.2 VqEC016G96
         K16B39U  C2016 02 03.30935 08 19 36.99 +51 36 05.2          20.8 RoEC016926
         K16B39U  C2016 02 03.31307 08 19 37.47 +51 37 40.8          21.4 RoEC016926
         K16B39U  C2016 02 03.31677 08 19 37.97 +51 39 15.0          21.2 RoEC016926
         K16B39U  C2016 02 03.32047 08 19 38.49 +51 40 49.6          21.7 RoEC016926
         K16B39U  C2016 02 03.32420 08 19 38.94 +51 42 23.9          21.7 RoEC016926
         K16B39U  C2016 02 03.32789 08 19 39.46 +51 43 58.5          21.8 RoEC016926
    
    Observer details:
    926 Tenagra II Observatory.  Observers M. Schwartz, P. R. Holvorcem.  Measurer
        M. Schwartz.  0.81-m f/7 Ritchey-Chretien + CCD.
    G96 Mt. Lemmon Survey.  Observers R. A. Kowalski, R. G. Matheny.  Measurers
        E. J. Christensen, D. C. Fuls, A. R. Gibbs, A. D. Grauer, J. A. Johnson,
        R. A. Kowalski, S. M. Larson, G. J. Leonard, R. G. Matheny, R. L. Seaman,
        F. C. Shelly.  1.5-m reflector + CCD.
    
    Orbital elements:
    2016 BU39                                                Earth MOID = 0.0432 AU
    Epoch 2016 Jan. 13.0 TT = JDT 2457400.5                 MPC
    M 306.77230              (2000.0)            P               Q
    n   0.76157220     Peri.   58.22153     -0.96628473     +0.13415093
    a   1.1875776      Node   128.52977     -0.18328873     -0.95784918
    e   0.1967801      Incl.   16.31567     +0.18082882     -0.25402457
    P   1.29           H   26.8           G   0.15           U   7
    Residuals in seconds of arc
    160130 G96 (0.1-  2.0-)   160130 G96  0.0   0.4+    160131 G96  0.1+  0.0
    160130 G96  0.1-  0.3+    160130 G96  0.3-  0.2+    160131 G96  0.0   0.0
    160130 G96  0.6+  0.4+    160131 926  0.4-  0.3+    160131 G96  0.0   0.2-
    160130 G96  0.4+  0.2-    160131 926  0.0   0.1+    160203 926  0.1-  0.4-
    160130 G96  0.8-  0.4-    160131 926 (1.3+  1.7+)   160203 926  0.1-  0.2+
    160130 G96  0.7-  0.2-    160131 926  0.1-  0.2-    160203 926  0.0   0.0
    160130 G96  0.0   0.0     160131 926  0.3+  0.1+    160203 926  0.3+  0.3+
    160130 G96  0.2+  0.2-    160131 926  0.3+  0.1+    160203 926  0.2-  0.4-
    160130 G96  0.5+  0.3-    160131 G96  0.0   0.2-    160203 926  0.1+  0.3+
    
    Ephemeris:
    2016 BU39                a,e,i = 1.19, 0.20, 16                  q = 0.9539
    Date    TT    R. A. (2000) Decl.     Delta      r     Elong.  Phase     V
    2016 01 04    07 58 51.3 -23 54 23   0.1814  1.1104   130.8    42.1    25.0
    ...
    2016 01 19    08 02 06.0 -13 47 25   0.09611 1.0646   145.7    31.4    23.2
    ...
    2016 01 27    08 05 55.7 +06 52 36   0.05869 1.0417   166.3    13.0    21.5
    ...
    2016 02 02    08 15 14.1 +42 10 23   0.04481 1.0256   153.2    25.7    21.3
    2016 02 03    08 18 27.6 +49 21 56   0.04473 1.0230   146.2    32.4    21.5
    2016 02 04    08 22 46.4 +56 26 23   0.04537 1.0205   139.2    39.1    21.7
    ...
    2016 02 10    13 01 35.5 +86 36 24   0.06097 1.0059   106.7    70.0    23.2
    ...
    2016 02 18    19 21 22.1 +71 18 23   0.09584 0.9887    87.6    86.9    24.7
    ...
    2016 03 04    19 40 15.4 +58 14 11   0.1664  0.9650    76.0    94.4    26.2
    
    A. U. Tomatic                (C) Copyright 2016 MPC           M.P.E.C. 2016-C16
    

    Read MPEC 2016-C15 Read MPEC 2016-C17


    MPEC number:

    Enter an MPEC number in one of the following forms:

    • 1997-B01 (the full form)
    • J97B01 (the packed version of the full form)
    • B01 (the abbreviated form)